Powrót do katalogu

PAKSAT MM1R

AktywnyŁącznośćGEO
NORAD 59915·PAYLOAD·🇵🇰 Pakistan

Wystrzelony May 30, 2024 z Xichang Satellite Launch Center

Loading…

TLE

ŚwieżeSource: Space-Track

Epoka: Sep 14, 2026, 05:25 UTC

1 59915U 24104A   26257.22628410  .00000145  00000-0  00000-0 0  9997
2 59915   0.0398 228.2799 0001849 302.0447 302.5160  1.00272375  8420

Śledź PAKSAT MM1R w czasie rzeczywistym z AllMySat

Download on the App Store